SCP
0 0 0 0 0 0 0 0 0 0 0 0 0 0 0 0 0 0 0 0 0 0 0 0 0 0 0 0 0 0 0 0 0 0 0 0 0 0 0 0 0 0 0
0 0 0 0 0 0 0 0 0 0 0 0 0 0 0 0 0 0 0 0 0 0 0 0 0 0 0 0 0 0 0 0 0 0 0 0 0 0 0 0 0 0 0
0 0 0 0 0 0 0 0 0 0 0 0 0 0 0 0 0 0 0 0 0 0 0 0 0 0 0 0 0 0 0 0 0 0 0 0 0 0 0 0 0 0 0
0 0 0 0 0 0 0 0 0 0 0 0 0 0 0 0 0 0 0 0 0 0 0 0 0 0 0 0 0 0 0 0 0 0 0 0 0 0 0 0 0 0 0
0 0 0 0 0 0 0 0 0 0 0 0 0 0 0 0 0 0 0 0 0 0 0 0 0 0 0 0 0 0 0 0 0 0 0 0 0 0 0 0 0 0 0
0 0 0 0 0 0 0 0 0 0 0 0 0 0 0 0 0 0 0 0 0 0 0 0 0 0 0 0 0 0 0 0 0 0 0 0 0 0 0 0 0 0 0
0 0 0 0 0 0 0 0 0 0 0 0 0 0 0 0 0 0 0 0 0 0 0 0 0 0 0 0 0 0 0 0 0 0 0 0 0 0 0 0 0 0 0
0 0 0 0 0 0 0 0 0 0 0 0 0 0 0 0 0 0 0 0 0 0 0 0 0 0 0 0 0 0 0 0 0 0 0 0 0 0 0 0 0 0 0
0 0 0 0 0 0 0 0 0 0 0 0 0 0 0 0 0 0 0 0 0 0 0 0 0 0 0 0 0 0 0 0 0 0 0 0 0 0 0 0 0 0 0
0 0 0 0 0 0 0 0 0 0 0 0 0 0 0 0 0 0 0 0 0 0 0 0 0 0 0 0 0 0 0 0 0 0 0 0 0 0 0 0 0 0 0
0 0 0 0 0 0 0 0 0 0 0 0 0 0 0 0 0 0 0 0 0 0 0 0 0 0 0 0 0 0 0 0 0 0 0 0 0 0 0 0 0 0 0
0 0 0 0 0 0 0 0 0 0 0 0 0 0 0 0 0 0 0 0 0 0 0 0 0 0 0 0 0 0 0 0 0 0 0 0 0 0 0 0 0 0 0
0 0 0 0 0 0 0 0 0 0 0 0 0 0 0 0 0 0 0 0 0 0 0 0 0 0 0 0 0 0 0 0 0 0 0 0 0 0 0 0 0 0 0
0 0 0 0 0 0 0 0 0 0 0 0 0 0 0 0 0 0 0 0 0 0 0 0 0 0 0 0 0 0 0 0 0 0 0 0 0 0 0 0 0 0 0
0 0 0 0 0 0 0 0 0 0 0 0 0 0 0 0 0 0 0 0 0 0 0 0 0 0 0 0 0 0 0 0 0 0 0 0 0 0 0 0 0 0 0
0 0 0 0 0 0 0 0 0 0 0 0 0 0 0 0 0 0 0 0 0 0 0 0 0 0 0 0 0 0 0 0 0 0 0 0 0 0 0 0 0 0 0
0 0 0 0 0 0 0 0 0 0 0 0 0 0 0 0 0 0 0 0 0 0 0 0 0 0 0 0 0 0 0 0 0 0 0 0 0 0 0 0 0 0 0
0 0 0 0 0 0 0 0 0 0 0 0 0 0 0 0 0 0 0 0 0 0 0 0 0 0 0 0 0 0 0 0 0 0 0 0 0 0 0 0 0 0 0
0 0 0 0 0 0 0 0 0 0 0 0 0 0 0 0 0 0 0 0 0 0 0 0 0 0 0 0 0 0 0 0 0 0 0 0 0 0 0 0 0 0 0
0 0 0 0 0 0 0 0 0 0 0 0 0 0 0 0 0 0 0 0 0 0 0 0 0 0 0 0 0 0 0 0 0 0 0 0 0 0 0 0 0 0 0
0 0 0 0 0 0 0 0 0 0 0 0 0 0 0 0 0 0 0 0 0 0 0 0 0 0 0 0 0 0 0 0 0 0 0 0 0 0 0 0 0 0 0
0 0 0 0 0 0 0 0 0 0 0 0 0 0 0 0 0 0 0 0 0 0 0 0 0 0 0 0 0 0 0 0 0 0 0 0 0 0 0 0 0 0 0
0 0 0 0 0 0 0 0 0 0 0 0 0 0 0 0 0 0 0 0 0 0 0 0 0 0 0 0 0 0 0 0 0 0 0 0 0 0 0 0 0 0 0
0 0 0 0 0 0 0 0 0 0 0 0 0 0 0 0 0 0 0 0 0 0 0 0 0 0 0 0 0 0 0 0 0 0 0 0 0 0 0 0 0 0 0
0 0 0 0 0 0 0 0 0 0 0 0 0 0 0 0 0 0 0 0 0 0 0 0 0 0 0 0 0 0 0 0 0 0 0 0 0 0 0 0 0 0 0
0 0 0 0 0 0 0 0 0 0 0 0 0 0 0 0 0 0 0 0 0 0 0 0 0 0 0 0 0 0 0 0 0 0 0 0 0 0 0 0 0 0 0
Wind_Speed
5 5 4 4 3 4 4 4 3 3 2 2 2 2 1 1 1 2 2 2 3 3 3 3 4 4 4 3 3 3 3 4 8 9 7 7 7 8 8 6 7 6 8
4 4 4 3 3 3 3 3 2 3 2 2 2 1 1 2 2 2 3 3 3 4 4 4 5 4 5 4 3 4 4 4 6 10 9 7 8 7 8 8 8 7 6
4 4 3 3 3 3 3 2 2 2 2 1 2 2 2 2 2 3 3 3 4 4 4 4 5 4 6 4 4 4 4 5 4 7 9 7 7 6 8 8 8 6 7
4 4 4 3 3 3 2 2 2 2 2 2 2 2 2 2 3 3 3 3 3 4 4 4 4 5 6 5 5 5 5 5 5 6 7 7 7 6 6 7 8 6 6
3 4 3 3 2 2 2 2 1 1 1 1 1 1 1 2 2 2 3 3 3 3 3 4 5 7 8 7 5 5 5 5 5 6 7 7 7 7 6 6 8 8 7
3 2 2 2 2 2 2 2 1 1 0 1 1 1 1 2 4 5 4 2 2 3 4 4 5 6 8 10 11 10 8 6 6 6 7 8 9 8 7 7 7 8 7
2 2 2 2 2 2 2 2 1 1 0 0 0 1 2 3 5 5 5 3 2 3 4 4 5 5 7 6 8 9 8 10 10 7 8 9 9 8 8 8 7 7 7
2 2 2 2 2 1 1 1 0 0 0 0 1 1 2 4 6 5 5 2 2 3 4 4 5 5 6 7 5 6 6 6 8 6 6 7 8 8 7 7 7 7 6
2 1 1 2 2 1 1 1 0 0 0 1 1 1 1 3 6 6 5 2 2 4 4 4 4 5 9 10 6 6 7 6 8 10 11 10 13 13 9 5 5 5 6
1 1 1 2 2 1 1 0 0 0 0 1 1 1 1 2 5 6 6 2 3 3 3 4 6 7 9 9 5 5 6 7 7 7 8 8 7 8 10 5 4 4 4
1 2 2 1 1 1 1 1 1 1 1 1 1 2 1 3 4 6 6 2 2 3 3 3 4 8 10 10 8 4 7 8 5 5 5 5 5 5 5 5 4 3 4
2 2 2 2 1 1 2 1 1 1 1 1 1 2 2 2 4 6 7 6 5 3 4 3 4 9 9 9 7 7 9 7 3 4 4 4 5 5 5 5 5 3 3
3 2 2 2 2 1 1 1 1 1 0 1 1 2 2 2 3 7 7 7 7 4 3 6 8 8 8 6 7 8 7 4 3 3 4 5 5 5 5 4 4 3 3
2 2 2 2 2 2 1 1 1 0 0 1 1 2 2 3 3 3 3 4 5 4 3 5 7 7 6 6 6 5 4 3 3 3 4 4 4 4 4 4 3 4 4
2 2 2 2 1 2 2 1 1 0 1 1 1 1 2 3 4 7 5 3 3 3 4 3 3 4 4 4 4 4 3 4 4 4 4 4 4 4 4 4 3 3 3
2 2 1 1 1 2 2 2 4 3 3 3 2 2 3 4 6 7 7 7 7 6 4 2 3 3 4 4 4 4 4 4 4 4 4 4 4 4 4 4 3 3 3
2 1 1 1 1 1 1 1 2 4 5 5 5 5 5 6 6 7 7 6 6 5 3 2 3 3 4 4 4 4 4 4 4 3 3 4 4 4 4 4 4 4 3
2 1 2 1 1 1 1 1 1 2 3 3 4 6 7 7 7 7 7 5 4 4 2 3 3 3 4 4 4 4 4 4 4 3 3 3 3 3 4 4 4 4 3
2 1 1 1 1 1 1 2 2 2 2 2 3 4 7 7 7 7 6 3 2 3 3 3 3 3 4 4 4 4 4 4 4 3 3 3 3 3 3 3 4 5 4
2 3 2 2 2 2 2 2 2 2 2 2 3 3 4 4 3 4 4 3 3 3 3 3 4 4 4 4 4 4 4 3 3 3 3 3 3 3 3 4 3 3 3
2 2 3 2 2 1 1 2 2 2 2 2 3 4 5 3 3 3 3 3 3 3 3 4 4 4 4 4 3 4 4 3 3 3 3 3 3 3 3 3 3 3 2
2 2 2 2 1 2 2 1 1 2 2 2 3 4 6 3 3 3 3 3 3 3 3 3 3 3 3 4 4 4 4 3 3 3 3 3 3 3 3 3 3 2 2
2 2 2 2 1 2 2 2 2 2 2 2 3 3 3 3 3 3 3 3 3 4 4 3 4 4 4 4 3 3 3 3 3 3 3 3 3 3 3 3 3 2 2
2 1 1 1 1 1 1 1 2 2 2 2 3 3 3 3 3 3 3 3 3 4 4 4 4 5 6 5 4 4 3 4 3 3 3 3 3 3 2 2 2 2 2
1 1 1 1 1 1 1 1 2 2 2 3 3 3 3 3 3 3 3 3 4 4 5 5 4 5 6 7 6 5 5 6 5 3 2 2 2 2 2 2 1 1 1
1 1 1 1 1 1 1 1 2 2 2 3 3 3 3 4 4 4 4 3 4 4 5 4 5 6 7 6 6 6 7 6 5 4 2 1 1 1 1 1 1 1 1
Wind_Direction
169 171 169 177 173 166 176 189 192 191 184 184 197 206 227 249 260 259 266 268 267 274 276 273 274 278 278 271 268 267 263 258 278 292 295 303 305 308 311 308 305 304 302
166 161 163 159 156 165 179 189 185 189 189 190 195 204 231 252 256 251 265 266 263 272 277 278 281 289 283 276 272 272 269 261 269 290 300 304 303 305 306 308 309 307 299
150 149 148 153 161 175 183 185 184 187 186 183 190 210 237 252 256 256 258 259 259 263 268 274 281 287 285 282 281 277 276 280 273 283 294 300 301 304 308 306 305 303 304
140 145 155 171 177 178 174 173 183 183 183 191 206 223 241 257 263 263 266 266 266 267 267 269 275 273 274 278 280 275 282 288 287 286 291 298 299 300 302 311 315 316 311
138 150 169 168 159 150 150 156 159 174 198 200 202 255 274 269 271 281 272 268 271 281 282 280 280 287 290 291 292 287 288 289 293 293 294 300 304 311 312 311 310 313 309
140 150 150 143 144 149 154 147 146 161 185 147 181 250 285 291 301 301 301 275 278 285 291 293 291 289 296 302 303 302 298 295 297 296 299 302 303 305 307 307 310 313 312
130 130 134 143 150 159 151 136 153 181 166 193 288 275 276 290 304 309 312 312 295 292 292 299 304 303 308 301 300 305 303 302 300 297 296 298 302 305 306 303 304 303 296
124 125 133 134 137 138 135 146 159 161 171 255 286 287 292 301 310 312 317 317 297 292 288 288 293 301 304 311 310 309 306 305 305 304 293 297 301 302 297 294 295 298 292
130 134 134 136 134 130 148 164 134 114 347 296 276 280 294 303 315 318 324 312 302 296 293 293 297 298 307 318 320 313 314 316 320 319 319 320 322 322 320 317 312 313 311
155 140 130 130 134 144 174 180 87 129 281 311 318 310 298 300 317 326 330 311 305 305 303 299 307 313 316 322 319 314 315 318 321 324 328 332 328 325 329 321 307 305 307
96 100 91 96 118 132 97 70 91 74 51 10 333 326 318 314 324 333 334 331 303 305 306 305 303 315 319 322 325 315 311 319 319 323 326 328 333 336 334 329 321 306 303
85 87 79 74 75 80 90 60 67 91 76 12 352 339 332 321 337 333 333 332 328 309 303 302 305 316 321 326 330 329 331 336 333 329 330 333 336 335 330 327 323 320 310
85 81 73 64 58 68 101 98 60 64 71 356 354 337 331 335 334 339 337 335 332 324 310 321 327 331 333 335 337 341 346 345 333 334 334 330 325 317 318 321 325 329 331
90 86 79 75 60 47 48 81 91 61 21 355 340 325 325 330 330 329 324 328 334 332 328 334 343 349 351 345 344 347 347 337 334 329 325 321 322 327 332 331 331 339 347
89 90 76 68 77 59 39 31 11 313 241 266 283 292 316 321 324 330 334 332 329 328 336 345 351 350 357 355 349 348 350 349 350 340 334 331 333 338 336 336 338 344 350
87 80 75 71 62 60 50 26 21 18 13 4 350 335 325 324 331 338 341 343 345 350 359 356 352 350 346 343 340 341 344 345 343 339 334 334 336 336 334 337 342 344 346
99 87 77 69 68 59 44 35 12 16 27 23 20 8 358 348 347 346 348 353 0 7 18 0 347 341 337 335 333 333 332 332 333 335 334 338 338 334 333 340 342 342 343
71 69 74 74 71 59 36 21 15 7 358 358 4 8 4 0 358 355 356 5 9 16 9 349 340 335 332 331 331 329 327 332 338 339 337 337 336 332 334 339 340 338 338
59 58 68 69 63 52 39 31 24 15 5 349 348 357 4 3 6 11 13 21 3 353 347 341 335 330 325 326 327 326 327 330 333 335 334 332 331 331 331 335 336 338 344
54 60 57 66 59 48 38 35 28 19 11 2 353 344 342 353 0 3 8 3 357 345 338 333 331 328 325 324 325 326 328 329 332 335 333 330 328 323 322 328 331 335 341
52 56 50 52 47 36 33 32 23 13 6 356 342 339 349 353 347 345 347 348 345 336 331 328 328 326 324 323 323 323 322 321 325 327 327 322 320 318 318 319 320 327 336
53 48 47 48 41 35 31 29 22 9 360 353 340 340 351 355 343 341 339 337 333 325 319 319 320 319 316 316 316 314 313 314 317 316 315 313 311 311 313 317 323 334 343
56 55 48 40 33 33 26 18 11 1 350 344 338 337 340 342 338 336 334 333 331 328 326 324 319 317 318 314 309 301 299 299 296 292 296 299 301 302 307 312 317 333 343
54 53 53 44 36 30 18 6 357 347 340 336 338 339 339 336 332 330 329 329 329 327 326 324 317 314 318 319 313 304 294 289 287 280 275 279 293 302 307 314 320 334 339
59 55 42 31 19 14 10 1 351 343 337 336 337 335 334 334 332 330 328 326 325 323 324 322 318 317 318 318 314 307 307 311 312 304 282 277 283 289 297 311 326 341 347
50 40 31 29 26 12 357 343 338 334 329 331 334 334 332 330 328 327 326 325 325 323 322 321 321 321 320 318 315 317 322 325 328 330 320 289 302 313 326 341 357 6 14